This is the latest recevied weather packets stored in our database for station/object KE8WAY. If no packets are shown the sender has not sent any weather packets the latest 10 day(s).
| Time | Temp. | Humidity | Pressure | Rain* | Wind** | Luminosity | Snow |
|---|---|---|---|---|---|---|---|
| 1777896314 | 12.22° C | 66% | 1005.9 hPa | 0 mm | - | 128 W/m² | - |
| 1777896013 | 12.22° C | 67% | 1006.1 hPa | 0 mm | - | 118 W/m² | - |
| 1777895710 | 11.67° C | 67% | 1006.1 hPa | 0 mm | - | 108 W/m² | - |
| 1777895407 | 11.67° C | 67% | 1006.1 hPa | 0 mm | - | 102 W/m² | - |
| 1777895105 | 11.11° C | 69% | 1005.9 hPa | 0 mm | - | 62 W/m² | - |
| 1777894802 | 10.56° C | 69% | 1006.1 hPa | 0 mm | - | 58 W/m² | - |
| 1777894498 | 11.11° C | 69% | 1006 hPa | 0 mm | - | 48 W/m² | - |
| 1777894196 | 10.56° C | 68% | 1005.8 hPa | 0 mm | - | 52 W/m² | - |
| 1777893893 | 10.56° C | 69% | 1006 hPa | 0 mm | - | 49 W/m² | - |
| 1777893589 | 10.56° C | 70% | 1006.2 hPa | 0 mm | - | 42 W/m² | - |
| 1777893285 | 10.56° C | 70% | 1006 hPa | 0 mm | - | 34 W/m² | - |
| 1777892982 | 10.56° C | 70% | 1005.9 hPa | 0 mm | - | 29 W/m² | - |
| 1777892679 | 10.56° C | 70% | 1006 hPa | 0 mm | - | 27 W/m² | - |
| 1777892375 | 10° C | 70% | 1005.8 hPa | 0 mm | - | 27 W/m² | - |
| 1777892071 | 10° C | 71% | 1006 hPa | 0 mm | - | 23 W/m² | - |
| 1777891768 | 10° C | 71% | 1005.8 hPa | 0 mm | - | 16 W/m² | - |
| 1777891465 | 10° C | 72% | 1005.6 hPa | 0 mm | - | 11 W/m² | - |
| 1777891160 | 10° C | 71% | 1005.6 hPa | 0 mm | - | 8 W/m² | - |
| 1777890855 | 10° C | 71% | 1005.6 hPa | 0 mm | - | 5 W/m² | - |
| 1777890551 | 10° C | 70% | 1005.6 hPa | 0 mm | - | 3 W/m² | - |
| 1777890247 | 10° C | 70% | 1005.7 hPa | 0 mm | - | 0 W/m² | - |
| 1777889943 | 10° C | 70% | 1005.6 hPa | 0 mm | - | 0 W/m² | - |
| 1777889641 | 10° C | 69% | 1005.7 hPa | 0 mm | - | 0 W/m² | - |
| 1777889338 | 10° C | 70% | 1005.5 hPa | 0 mm | - | 0 W/m² | - |
| 1777889035 | 10° C | 70% | 1005.6 hPa | 0 mm | - | 0 W/m² | - |
* Rain latest hour (hover to see other rain measurements)
** Current wind speed in m/s (hover to see current wind gust speed)